Weather History for Grand Forks AFB, ND

Change the Weather History Date:

Friday, January 4, 2013

  Actual Average Record
Temperature  
Mean Temperature 15 °F -  
Max Temperature 29 °F 15 °F 42 °F (2007)
Min Temperature 1 °F 0 °F -25 °F (2005)
Degree Days  
Heating Degree Days 50    
Moisture  
Dew Point 7 °F    
Average Humidity 78    
Maximum Humidity 90    
Minimum Humidity 62    
Precipitation  
Precipitation 0.00 in - - ()
Sea Level Pressure  
Sea Level Pressure 30.05 in    
Wind  
Wind Speed 8 mph (NW)    
Max Wind Speed 15 mph    
Max Gust Speed -    
Visibility 6 miles    
Events Fog    
Averages and records for this station are not official NWS values.
T = Trace of Precipitation, MM = Missing Value Source: NWS Daily Summary

Daily Weather History Graph

Daily Weather History Graph

Search for Another Location

Airport:

Trip Planner

Search our weather history database for the weather conditions in past years. The results will help you decide how hot, cold, wet, or windy it might be!

Date:

Astronomy

Jan. 04, 2013 Rise Set
Actual Time 8:18 AM CST 4:50 PM CST
Civil Twilight 7:43 AM CST 5:26 PM CST
Nautical Twilight 7:03 AM CST 6:06 PM CST
Astronomical Twilight 6:26 AM CST 6:43 PM CST
Moon No Moon Rise 11:27 AM CST (1/4)
Length of Visible Light 9h 43m
Length of Day
8h 31m
Waning Gibbous, 55% of the Moon is Illuminated
Jan 4
Waning Gibbous
Jan 4
Last Quarter
Jan 11
New
Jan 18
First Quarter
Jan 26
Full

Hourly Weather History & Observations

Time (CST) Temp. Windchill Dew Point Humidity Pressure Visibility Wind Dir Wind Speed Gust Speed Precip Events Conditions
12:55 AM 24.8 °F 13.4 °F 14.7 °F 66% 29.94 in 10.0 mi WNW 12.7 mph - N/A   Clear
1:55 AM 23.7 °F 11.5 °F 14.5 °F 68% 29.95 in 10.0 mi WNW 13.8 mph - N/A   Clear
2:55 AM 22.8 °F 9.9 °F 14.2 °F 69% 29.96 in 10.0 mi WNW 15.0 mph - N/A   Clear
3:55 AM 21.4 °F 8.5 °F 13.3 °F 71% 29.97 in 10.0 mi WNW 13.8 mph - N/A   Clear
4:55 AM 19.4 °F 6.6 °F 12.6 °F 75% 29.98 in 10.0 mi WNW 12.7 mph - N/A   Clear
5:55 AM 20.1 °F 10.3 °F 12.9 °F 74% 30.00 in 10.0 mi NW 8.1 mph - N/A   Clear
6:55 AM 18.3 °F 10.2 °F 11.8 °F 76% 30.01 in 10.0 mi NW 5.8 mph - N/A   Clear
7:55 AM 16.5 °F 5.1 °F 10.4 °F 77% 30.02 in 10.0 mi WNW 9.2 mph - N/A   Clear
8:55 AM 16.3 °F 4.9 °F 10.4 °F 77% 30.03 in 10.0 mi WNW 9.2 mph - N/A   Clear
9:55 AM 23.2 °F 14.1 °F 13.5 °F 66% 30.06 in 10.0 mi WNW 8.1 mph - N/A   Clear
10:55 AM 25.9 °F 17.4 °F 14.9 °F 63% 30.09 in 10.0 mi WNW 8.1 mph - N/A   Clear
11:55 AM 27.0 °F 18.0 °F 16.5 °F 65% 30.09 in 10.0 mi NNW 9.2 mph - N/A   Clear
12:55 PM 28.8 °F 18.4 °F 17.1 °F 62% 30.10 in 10.0 mi North 12.7 mph - N/A   Clear
1:55 PM 28.9 °F 22.8 °F 18.1 °F 64% 30.10 in 10.0 mi NNW 5.8 mph - N/A   Clear
2:55 PM 29.3 °F 22.3 °F 18.5 °F 64% 30.10 in 10.0 mi North 6.9 mph - N/A   Clear
3:55 PM 27.0 °F 21.6 °F 18.5 °F 70% 30.09 in 10.0 mi NE 4.6 mph - N/A   Clear
4:55 PM 22.6 °F - 16.3 °F 77% 30.11 in 10.0 mi Calm Calm - N/A   Clear
5:55 PM 14.0 °F - 11.7 °F 90% 30.12 in 10.0 mi Calm Calm - N/A   Clear
6:55 PM 9.5 °F 3.0 °F 6.3 °F 87% 30.12 in 10.0 mi North 3.5 mph - N/A   Clear
7:55 PM 7.3 °F -1.3 °F 2.7 °F 81% 30.09 in 10.0 mi SW 4.6 mph - N/A   Clear
8:55 PM 4.5 °F -2.7 °F 0.5 °F 84% 30.09 in 10.0 mi West 3.5 mph - N/A   Clear
9:55 PM 4.3 °F - 0.3 °F 84% 30.07 in 9.0 mi Calm Calm - N/A   Clear
9:58 PM 5.0 °F - 1.4 °F 85% 30.03 in 0.5 mi Calm Calm - N/A Fog Fog
9:59 PM 5.0 °F - 1.4 °F 85% 30.06 in 0.8 mi Calm Calm - N/A   Clear
10:05 PM 5.0 °F - 1.4 °F 85% 30.06 in 0.2 mi Calm Calm - N/A Fog Light Freezing Fog
10:15 PM 5.0 °F - -0.4 °F 78% 30.06 in 0.8 mi Calm Calm - N/A   Haze
10:19 PM 3.2 °F - -0.4 °F 85% 30.06 in 1.0 mi Calm Calm - N/A   Clear
10:29 PM 3.2 °F - -0.4 °F 85% 30.06 in 0.5 mi Calm Calm - N/A Fog Fog
10:32 PM 3.2 °F - -0.4 °F 85% 30.07 in 0.5 mi Calm Calm - N/A Fog Light Freezing Fog
10:35 PM 3.2 °F - -0.4 °F 85% 30.06 in 0.5 mi Calm Calm - N/A   Haze
10:37 PM 3.2 °F - -0.4 °F 85% 30.06 in 0.2 mi Calm Calm - N/A Fog Fog
10:55 PM 1.9 °F - -2.4 °F 82% 30.06 in 0.2 mi Calm Calm - N/A   Haze
11:10 PM 1.4 °F - -2.2 °F 85% 30.06 in 0.5 mi Calm Calm - N/A   Haze
11:11 PM 1.4 °F - -2.2 °F 85% 30.06 in 0.5 mi Calm Calm - N/A   Haze
11:21 PM 1.4 °F -6.2 °F -2.2 °F 85% 30.06 in 0.2 mi North 3.5 mph - N/A   Haze
11:22 PM 1.4 °F -6.2 °F -2.2 °F 85% 30.06 in 0.2 mi North 3.5 mph - N/A   Haze
11:55 PM 2.1 °F - -2.0 °F 83% 30.06 in 0.2 mi Calm Calm - N/A   Haze